Date,TemperatureHighF,TemperatureAvgF,TemperatureLowF,DewpointHighF,DewpointAvgF,DewpointLowF,HumidityHigh,HumidityAvg,HumidityLow,PressureMaxIn,PressureMinIn,WindSpeedMaxMPH,WindSpeedAvgMPH,GustSpeedMaxMPH,PrecipitationSumIn
2014-1-1,48.6,32.2,23.6,29.8,24.8,21.4,93,77,42,30.46,30.21,10,0,10,0.00
2014-1-2,39.1,33.6,27.7,37.9,31.5,14.5,96,92,55,30.22,29.72,15,0,15,0.18
2014-1-3,32.9,24.2,15.1,15.0,7.3,3.3,86,49,30,30.54,29.91,19,2,19,0.00
2014-1-4,38.1,23.3,11.2,19.9,12.9,8.9,91,68,38,30.57,30.35,8,1,8,0.00
2014-1-5,39.6,34.8,30.5,38.8,32.8,18.9,98,93,56,30.35,29.82,4,0,4,0.17
2014-1-6,39.3,32.0,7.1,38.8,21.7,-11.6,98,69,29,30.31,29.72,18,2,18,0.11
2014-1-7,27.8,13.1,3.8,5.8,-7.3,-11.8,82,41,24,30.57,30.30,12,1,12,0.00
2014-1-8,44.7,22.3,7.2,17.5,9.8,4.7,90,65,28,30.68,30.55,7,1,7,0.00
2014-1-9,47.7,27.9,17.1,27.6,17.3,7.2,93,70,20,30.64,30.53,6,0,6,0.00
2014-1-10,45.3,39.5,35.1,44.2,36.7,22.8,97,90,55,30.55,30.13,2,0,2,0.65
2014-1-11,50.7,44.7,41.4,50.1,44.2,40.6,98,98,97,30.13,29.65,7,0,7,1.70
2014-1-12,57.8,47.0,28.6,42.7,30.5,26.7,97,55,32,30.20,29.80,15,2,16,0.00
2014-1-13,48.7,35.5,24.2,43.8,32.2,23.0,97,89,66,30.19,30.00,3,0,3,0.03
2014-1-14,58.4,46.5,27.9,48.6,38.5,26.4,98,79,33,30.01,29.83,13,1,13,0.17
2014-1-15,52.2,34.3,24.0,35.8,28.8,22.8,96,82,47,30.02,29.91,10,0,10,0.00
2014-1-16,44.7,30.0,17.6,23.3,16.8,6.8,94,65,23,30.11,29.97,10,1,10,0.00
2014-1-17,50.8,31.7,18.1,25.7,20.2,16.1,93,68,29,30.06,29.87,15,2,15,0.00
2014-1-18,38.5,29.5,22.0,18.4,11.2,5.7,79,47,33,30.14,29.97,12,2,12,0.00
2014-1-19,50.4,32.8,17.4,27.8,20.4,15.2,92,65,33,30.06,29.98,15,1,15,0.00
2014-1-20,66.0,40.0,19.3,31.5,21.6,16.9,91,59,19,30.00,29.85,15,1,16,0.00
2014-1-21,49.1,34.9,24.3,30.4,24.9,12.4,89,69,40,29.94,29.60,14,1,14,0.00
2014-1-22,34.5,24.8,15.4,12.5,3.0,-8.9,62,42,15,30.15,29.93,11,1,11,0.00
2014-1-23,35.9,25.6,14.5,10.6,5.0,-3.8,74,43,25,30.53,30.15,14,2,14,0.00
2014-1-24,29.6,16.3,6.3,1.1,-7.3,-12.1,71,36,16,30.69,30.30,13,2,13,0.00
2014-1-25,39.1,21.3,4.0,21.4,7.2,-0.7,82,58,27,30.31,29.76,17,1,18,0.00
2014-1-26,53.0,38.4,24.4,21.4,11.9,4.5,77,36,16,30.00,29.87,16,2,16,0.00
2014-1-27,58.4,41.0,26.5,36.6,27.8,7.0,87,63,36,30.12,29.86,12,1,12,0.00
2014-1-28,30.8,23.3,18.1,15.9,6.3,-5.9,87,53,23,30.35,30.12,8,1,8,0.00
2014-1-29,32.5,20.4,7.8,13.4,6.7,-0.6,90,61,25,30.43,30.25,7,1,7,0.00
2014-1-30,37.3,17.1,0.2,13.3,5.5,-3.0,88,65,30,30.50,30.31,8,1,8,0.01
2014-1-31,53.9,28.9,11.3,23.7,16.4,8.7,90,66,25,30.32,30.19,6,0,7,0.02
2014-2-1,56.0,37.9,19.4,36.5,22.3,17.5,93,62,25,30.32,30.16,6,0,6,0.00
2014-2-2,67.5,42.9,25.0,48.9,34.0,23.5,95,74,45,30.17,30.03,8,0,8,0.00
2014-2-3,65.5,54.9,39.6,59.9,48.0,35.0,97,80,47,30.27,29.87,9,1,12,0.69
2014-2-4,42.7,39.7,36.3,35.9,33.1,30.3,95,77,65,30.41,30.15,9,1,9,0.13
2014-2-5,59.8,41.6,35.1,47.7,36.0,25.5,96,84,36,30.18,29.87,13,1,14,0.17
2014-2-6,42.4,35.2,28.6,26.0,21.8,19.7,73,59,41,30.37,30.16,6,1,7,0.00
2014-2-7,49.2,36.6,25.4,31.6,26.7,21.8,88,69,43,30.41,30.28,8,0,8,0.00
2014-2-8,52.6,40.4,29.9,33.9,30.7,27.6,92,70,45,30.32,30.15,6,0,6,0.00
2014-2-9,58.1,40.9,28.1,37.6,32.0,26.3,94,74,44,30.21,30.00,11,1,11,0.00
2014-2-10,39.2,35.2,31.1,36.3,32.5,28.2,95,90,80,30.28,30.08,6,0,6,0.14
2014-2-11,37.4,32.8,22.7,32.5,24.8,18.2,95,74,49,30.43,30.27,7,1,7,0.00
2014-2-12,28.7,25.0,21.9,26.4,17.3,10.5,93,74,50,30.47,29.93,11,1,11,0.00
2014-2-13,43.8,34.4,28.7,34.0,29.0,19.9,95,82,49,29.93,29.60,13,1,13,0.32
2014-2-14,58.8,43.1,24.8,32.7,24.7,20.1,83,52,25,29.83,29.69,12,2,12,0.03
2014-2-15,44.2,39.2,25.3,36.3,24.3,7.2,93,59,23,30.12,29.59,15,2,15,0.01
2014-2-16,57.3,38.1,22.3,29.8,22.3,15.2,85,56,32,30.20,30.05,12,1,12,0.00
2014-2-17,47.6,34.6,23.6,31.9,25.1,21.8,94,71,43,30.40,30.20,8,1,8,0.00
2014-2-18,65.0,43.0,24.4,33.4,25.3,17.3,95,60,16,30.28,30.12,9,1,9,0.00
2014-2-19,73.8,52.9,38.0,57.4,42.2,31.5,96,72,30,30.12,29.95,18,1,18,0.11
2014-2-20,68.9,54.1,43.5,54.3,43.9,38.5,93,70,51,30.20,29.94,6,0,6,0.00
2014-2-21,64.3,58.4,40.9,57.5,42.0,1.0,95,64,8,30.05,29.82,11,2,11,0.83
2014-2-22,65.7,46.6,31.4,33.6,24.5,13.1,88,51,13,30.24,30.05,11,1,11,0.00
2014-2-23,69.9,45.6,27.1,34.9,28.7,25.2,94,62,21,30.15,29.93,12,1,12,0.00
2014-2-24,60.4,48.9,30.0,34.9,27.7,15.4,85,49,21,30.16,29.95,12,1,12,0.00
2014-2-25,61.1,41.5,27.3,28.7,23.6,16.8,84,55,24,30.14,29.95,10,1,10,0.00
2014-2-26,50.6,37.5,24.6,28.0,22.9,14.9,83,59,29,30.00,29.82,10,1,10,0.00
2014-2-27,52.9,33.2,15.2,19.8,8.8,-3.8,91,49,10,30.05,29.84,10,1,11,0.00
2014-2-28,46.5,30.3,16.2,18.0,12.9,9.3,85,53,25,30.36,30.05,8,1,9,0.00
2014-3-1,56.1,37.7,24.2,32.5,22.9,17.0,89,58,34,30.42,30.25,9,1,9,0.00
2014-3-2,69.4,46.1,27.6,47.4,35.1,25.7,94,70,41,30.31,29.92,10,1,10,0.00
2014-3-3,61.3,46.0,28.5,50.0,40.7,24.6,93,83,60,30.29,29.78,12,1,12,0.19
2014-3-4,41.4,28.9,18.1,24.6,16.7,8.4,89,63,35,30.41,30.24,9,1,9,0.01
2014-3-5,56.1,38.0,25.4,30.0,24.0,18.4,88,60,33,30.32,30.15,7,1,7,0.00
2014-3-6,40.2,33.9,25.4,30.9,19.9,15.1,93,58,40,30.43,30.17,9,1,10,0.22
2014-3-7,51.0,38.0,29.3,44.7,35.3,28.0,96,91,65,30.17,30.00,11,1,13,0.89
2014-3-8,69.2,45.7,27.0,45.2,33.8,26.0,97,71,29,30.15,30.01,12,1,12,0.00
2014-3-9,70.1,51.7,34.1,41.0,33.6,18.5,92,58,17,30.13,30.04,9,1,9,0.00
2014-3-10,75.0,48.6,27.1,39.1,30.2,24.4,92,57,17,30.10,29.85,13,1,13,0.00
2014-3-11,80.4,53.8,32.5,41.1,33.4,26.8,92,56,15,29.88,29.69,14,1,14,0.00
2014-3-12,72.5,56.4,39.8,60.2,48.6,23.1,95,77,45,29.76,29.28,17,2,24,0.09
2014-3-13,47.0,37.3,25.9,26.4,10.8,-0.1,63,36,15,30.29,29.76,15,3,17,0.00
2014-3-14,60.1,38.1,20.0,26.5,16.7,13.1,84,50,18,30.37,30.12,12,2,15,0.00
2014-3-15,71.8,53.7,34.3,37.7,30.8,24.8,78,46,19,30.12,30.00,13,1,13,0.00
2014-3-16,53.1,43.2,37.5,43.6,37.2,27.8,95,81,38,30.07,29.85,7,1,9,0.76
2014-3-17,36.9,32.9,30.4,35.3,31.4,28.9,95,94,92,30.04,29.86,9,1,9,0.44
2014-3-18,44.5,35.5,30.1,39.7,32.9,28.4,95,90,82,30.24,30.00,8,1,8,0.01
2014-3-19,48.7,41.2,34.1,44.5,39.6,33.1,97,94,82,30.24,30.03,8,0,8,0.02
2014-3-20,65.5,47.0,31.6,41.3,27.6,13.5,97,61,14,30.12,30.01,11,1,11,0.00
2014-3-21,68.0,47.0,27.9,34.8,26.4,24.0,87,52,20,30.22,30.07,14,2,14,0.00
2014-3-22,73.2,52.2,35.5,43.6,35.8,32.3,90,60,27,30.09,29.97,8,1,9,0.00
2014-3-23,54.6,44.5,34.0,46.6,40.6,28.9,95,87,47,30.20,29.96,7,0,7,0.46
2014-3-24,51.7,36.7,23.5,29.6,23.4,17.4,92,64,31,30.31,30.10,10,1,10,0.00
2014-3-25,46.1,36.4,30.5,40.8,31.4,21.7,96,83,40,30.12,29.85,16,1,16,0.09
2014-3-26,48.4,34.8,25.7,23.9,13.5,8.3,77,44,20,30.33,30.12,11,2,11,0.00
2014-3-27,59.0,37.2,21.2,30.6,20.3,17.7,88,58,22,30.50,30.29,16,2,16,0.00
2014-3-28,59.5,52.7,36.2,53.1,46.4,29.0,94,79,70,30.31,30.13,8,1,8,0.00
2014-3-29,64.0,55.7,46.5,60.8,54.0,33.8,97,94,61,30.15,29.64,15,1,15,0.71
2014-3-30,56.0,45.8,40.4,34.0,29.2,20.9,65,54,28,30.07,29.73,18,3,19,0.00
2014-3-31,75.2,56.5,39.1,37.6,24.5,15.6,74,33,12,30.19,30.07,9,1,14,0.00
2014-4-1,82.2,56.4,38.5,43.3,37.0,32.0,87,57,19,30.17,30.01,11,1,11,0.00
2014-4-2,85.3,60.8,38.6,49.5,41.8,35.3,94,59,21,30.12,30.00,16,1,16,0.00
2014-4-3,80.0,58.6,46.8,56.3,48.0,40.5,95,71,34,30.15,29.89,11,1,11,0.13
2014-4-4,75.7,62.8,47.5,59.4,53.2,43.0,96,73,42,29.92,29.75,14,1,14,0.00
2014-4-5,70.3,60.1,48.6,46.7,36.1,26.0,64,43,20,30.08,29.85,9,1,9,0.00
2014-4-6,59.0,48.4,36.7,39.6,34.0,29.9,88,60,37,30.25,30.08,9,1,9,0.00
2014-4-7,51.4,46.9,44.9,48.9,44.9,39.2,97,93,64,30.12,29.71,6,0,6,1.58
2014-4-8,64.3,54.0,46.0,52.0,44.6,35.2,98,74,41,29.78,29.64,10,1,10,0.01
2014-4-9,66.6,53.9,39.3,43.9,38.4,26.5,86,59,24,30.16,29.78,11,1,11,0.00
2014-4-10,72.5,50.6,31.4,40.3,34.2,29.9,95,62,25,30.32,30.16,15,2,15,0.00
2014-4-11,77.3,56.8,37.5,46.2,39.3,34.6,95,61,22,30.24,30.07,14,2,14,0.00
2014-4-12,80.5,60.4,42.1,53.9,45.4,40.2,94,64,30,30.25,30.11,11,1,11,0.00
2014-4-13,80.1,62.4,45.1,57.2,50.5,43.8,96,70,40,30.20,30.06,17,2,17,0.00
2014-4-14,70.5,64.7,60.2,61.8,57.5,54.8,96,78,66,30.07,29.80,13,2,13,0.29
2014-4-15,64.1,57.0,32.4,60.6,53.1,23.5,97,88,55,30.07,29.65,12,1,12,1.06
2014-4-16,58.0,39.8,25.3,30.2,22.8,18.0,90,57,22,30.49,30.05,7,1,11,0.00
2014-4-17,62.1,42.5,27.3,34.8,28.0,24.6,95,64,26,30.61,30.45,11,1,11,0.00
2014-4-18,55.3,44.7,35.0,46.1,37.7,32.6,94,78,57,30.49,30.28,3,0,4,0.11
2014-4-19,57.4,50.2,45.2,51.2,47.0,44.1,96,89,70,30.29,30.17,12,0,12,0.48
2014-4-20,72.6,54.2,42.3,48.8,41.7,31.5,98,71,23,30.34,30.22,10,1,10,0.01
2014-4-21,76.5,53.7,34.5,49.5,40.0,33.2,97,67,31,30.25,29.96,10,1,10,0.00
2014-4-22,76.0,59.7,45.9,58.7,51.1,44.5,96,76,44,29.96,29.74,12,0,12,0.00
2014-4-23,75.3,58.9,43.9,50.7,35.1,21.1,96,50,14,30.02,29.78,8,1,8,0.00
2014-4-24,73.0,52.3,33.8,44.3,36.2,32.1,95,61,27,30.18,29.99,12,1,12,0.00
2014-4-25,72.1,57.6,44.6,63.5,51.1,41.6,91,80,50,30.00,29.76,13,1,13,0.15
2014-4-26,80.8,62.2,44.7,50.5,44.8,38.2,94,60,23,30.06,29.93,12,1,12,0.00
2014-4-27,84.6,63.7,43.6,55.5,47.0,42.3,96,63,25,30.04,29.91,11,1,11,0.00
2014-4-28,75.4,64.6,56.3,63.9,58.4,51.4,94,81,65,29.97,29.84,8,1,8,0.00
2014-4-29,56.5,54.1,52.2,54.7,52.5,51.0,97,94,84,30.07,29.86,5,0,6,0.45
2014-4-30,72.2,60.4,52.8,66.0,57.6,52.0,98,91,73,30.07,29.87,6,0,8,0.02
2014-5-1,78.6,66.1,52.0,61.4,54.1,39.8,97,70,34,29.93,29.78,15,1,15,0.00
2014-5-2,72.7,55.8,42.4,49.2,41.5,36.4,94,64,28,29.99,29.84,13,1,13,0.00
2014-5-3,77.1,60.1,43.2,49.4,43.4,37.1,96,62,26,29.98,29.88,9,1,14,0.00
2014-5-4,87.0,64.3,43.4,52.0,45.1,41.5,95,60,21,30.05,29.90,17,1,17,0.00
2014-5-5,89.1,65.0,48.9,62.5,52.8,47.5,96,70,26,30.02,29.81,13,1,13,0.00
2014-5-6,88.8,68.3,51.1,59.7,53.0,46.0,97,67,23,29.97,29.86,11,1,11,0.00
2014-5-7,80.9,69.3,59.5,62.4,60.3,57.5,93,75,48,30.12,30.08,6,0,6,0.00
2014-5-8,89.2,68.1,49.1,63.2,52.4,40.9,98,67,20,30.22,30.09,10,1,10,0.00
2014-5-9,83.5,66.6,53.1,64.2,57.8,51.7,97,76,45,30.17,30.07,15,1,15,0.04
2014-5-10,74.8,65.3,58.2,67.7,62.2,57.2,97,90,71,30.14,30.03,8,0,8,0.05
2014-5-11,85.9,67.8,52.8,65.4,57.9,52.0,98,76,36,30.18,30.07,7,0,7,0.00
2014-5-12,87.3,71.3,53.9,67.9,60.5,52.8,97,73,41,30.21,30.11,9,1,9,0.00
2014-5-13,88.2,72.7,58.7,69.6,63.4,57.6,97,76,44,30.16,30.07,11,1,11,0.00
2014-5-14,83.1,72.5,61.0,68.5,62.4,57.9,97,73,45,30.15,30.02,11,1,11,0.00
2014-5-15,73.0,65.9,53.4,67.8,63.2,49.6,96,91,67,30.04,29.84,10,1,10,1.40
2014-5-16,69.9,56.6,43.1,50.0,43.6,35.3,95,65,35,30.13,29.91,9,1,9,0.00
2014-5-17,68.3,54.2,37.1,52.1,42.2,35.5,96,67,38,30.23,30.12,9,0,9,0.00
2014-5-18,64.6,55.3,47.6,50.8,46.4,41.3,93,74,49,30.29,30.20,6,0,6,0.00
2014-5-19,71.7,57.3,40.8,55.2,46.5,39.8,97,72,40,30.35,30.23,9,1,9,0.00
2014-5-20,77.3,62.0,44.3,61.2,53.6,43.0,96,77,50,30.32,30.11,12,1,12,0.00
2014-5-21,87.1,71.2,52.0,64.5,57.2,50.9,97,67,37,30.13,29.97,12,1,12,0.00
2014-5-22,86.6,73.8,61.7,65.9,61.5,58.2,91,67,43,30.07,29.94,18,0,18,0.02
2014-5-23,83.7,70.3,61.1,66.0,61.1,53.5,96,75,43,30.11,29.96,8,0,8,0.02
2014-5-24,80.3,67.0,49.5,56.4,51.4,47.0,93,62,32,30.16,30.05,7,0,8,0.00
2014-5-25,80.2,66.8,51.8,65.3,57.5,50.1,95,74,47,30.21,30.12,6,0,6,0.00
2014-5-26,85.6,70.6,56.0,67.1,61.4,54.9,97,75,46,30.22,30.07,7,0,7,0.00
2014-5-27,84.8,70.9,60.4,70.1,65.1,59.0,97,83,52,30.13,30.00,6,0,6,0.01
2014-5-28,87.3,73.2,61.1,70.4,64.3,59.5,97,77,42,30.05,29.97,8,0,8,0.01
2014-5-29,87.4,70.6,59.9,69.3,63.4,58.8,97,81,45,30.12,29.99,6,0,8,0.16
2014-5-30,86.0,71.0,63.9,72.4,67.1,63.0,98,89,56,30.12,30.05,6,0,6,0.19
2014-5-31,77.6,68.8,60.8,67.1,64.3,59.4,97,87,58,30.21,30.11,3,0,4,0.20
2014-6-1,71.9,64.2,55.5,64.0,59.1,54.4,97,84,67,30.35,30.21,6,0,6,0.00
2014-6-2,78.8,66.2,52.3,61.6,56.9,51.2,97,75,48,30.31,30.15,7,0,7,0.00
2014-6-3,81.1,68.6,53.9,68.2,60.7,52.7,97,78,57,30.16,29.99,5,0,5,0.00
2014-6-4,89.0,74.0,57.7,69.3,62.8,56.6,97,72,39,30.01,29.78,9,1,10,0.00
2014-6-5,86.1,76.0,65.7,71.3,66.1,63.2,96,74,52,29.87,29.74,7,0,9,0.01
2014-6-6,84.5,72.5,60.1,65.5,62.5,58.7,96,73,48,29.96,29.85,5,0,5,0.00
2014-6-7,82.6,72.5,60.8,69.1,63.8,58.8,94,76,51,30.03,29.94,8,0,8,0.00
2014-6-8,81.3,72.6,68.8,72.2,68.3,64.9,96,87,67,29.99,29.83,9,1,9,0.57
2014-6-9,84.4,73.4,65.8,71.4,67.8,64.9,97,84,57,29.93,29.83,8,0,8,0.23
2014-6-10,89.9,76.9,65.5,72.6,66.0,61.8,98,73,42,29.99,29.88,11,1,12,0.05
2014-6-11,83.1,71.7,63.6,70.7,66.4,62.3,96,85,61,30.00,29.83,9,0,9,0.13
2014-6-12,81.5,71.3,65.6,71.2,66.5,64.3,97,86,58,29.94,29.84,8,0,8,0.35
2014-6-13,84.0,71.8,63.6,69.4,64.8,60.8,97,81,47,29.92,29.82,8,0,8,0.11
2014-6-14,84.5,71.7,58.0,69.0,63.5,57.2,98,78,50,30.08,29.92,6,0,6,0.00
2014-6-15,84.9,74.4,64.5,67.3,63.7,59.0,96,73,44,30.21,30.07,6,0,6,0.00
2014-6-16,91.4,75.2,63.5,71.7,66.9,62.2,96,78,45,30.21,30.12,7,0,7,0.00
2014-6-17,92.6,77.7,64.5,72.1,67.7,63.1,97,75,39,30.19,30.07,7,0,7,0.00
2014-6-18,93.0,76.5,66.4,73.5,68.1,65.1,97,78,42,30.14,30.06,6,0,6,0.00
2014-6-19,93.0,74.3,64.2,72.8,67.4,63.0,97,81,44,30.13,30.04,16,0,16,0.15
2014-6-20,89.7,72.9,64.5,74.1,67.8,63.3,97,86,50,30.08,29.94,9,0,9,0.05
2014-6-21,86.9,75.2,65.3,74.7,67.9,64.4,98,80,55,29.97,29.83,6,0,6,0.00
2014-6-22,88.1,76.1,63.4,70.6,64.9,60.0,96,72,40,29.98,29.85,4,0,4,0.00
2014-6-23,83.4,75.0,67.7,71.0,68.2,64.8,92,80,59,30.11,29.98,5,0,5,0.00
2014-6-24,83.0,73.9,68.3,72.5,69.4,66.8,97,87,63,30.12,30.01,10,0,10,0.10
2014-6-25,84.1,75.6,68.9,73.0,69.7,66.8,97,83,60,30.03,29.92,9,0,9,0.00
2014-6-26,87.7,76.9,66.9,71.4,67.2,61.8,96,75,44,30.03,29.92,7,0,7,0.00
2014-6-27,86.3,76.3,67.8,72.2,68.7,65.4,93,78,57,30.13,29.99,6,0,6,0.00
2014-6-28,80.1,73.8,67.9,72.6,69.2,66.2,95,86,70,30.23,30.10,6,0,6,0.01
2014-6-29,79.5,71.8,66.3,72.1,69.1,65.4,97,91,75,30.26,30.14,4,0,4,1.03
2014-6-30,84.2,72.4,66.2,72.9,68.7,65.0,97,89,61,30.14,29.97,4,0,5,0.01
2014-7-1,89.6,77.9,66.9,75.7,70.5,65.7,97,80,50,30.01,29.88,9,0,9,0.00
2014-7-2,93.2,81.1,68.5,76.4,70.7,63.3,97,74,40,29.96,29.90,8,0,8,0.00
2014-7-3,89.8,78.0,67.2,75.1,69.1,61.5,95,75,54,29.98,29.87,5,0,6,0.00
2014-7-4,84.3,72.0,58.6,62.0,57.6,50.6,94,64,35,30.22,29.97,6,0,6,0.00
2014-7-5,81.3,69.8,53.3,58.9,53.9,50.0,91,60,38,30.32,30.20,7,0,7,0.00
2014-7-6,85.7,70.7,54.6,66.0,59.0,53.1,96,70,41,30.22,30.05,7,0,7,0.00
2014-7-7,89.6,75.1,57.9,68.8,62.5,56.5,96,69,37,30.08,29.93,10,1,10,0.00
2014-7-8,91.3,77.1,61.9,71.5,65.9,60.5,96,72,44,30.02,29.90,11,1,11,0.00
2014-7-9,86.0,76.7,68.8,70.4,67.5,65.4,92,75,54,30.04,29.93,7,0,7,0.01
2014-7-10,85.1,71.7,66.5,73.5,68.1,64.5,97,89,55,30.13,29.99,9,0,9,0.73
2014-7-11,85.7,74.7,64.6,73.1,67.7,63.7,97,81,53,30.22,30.11,8,0,8,0.00
2014-7-12,88.3,76.5,65.2,73.8,68.4,64.0,97,79,50,30.23,30.13,7,0,7,0.00
2014-7-13,87.9,76.6,66.2,73.8,69.5,65.0,97,80,56,30.15,30.02,9,0,9,0.00
2014-7-14,92.8,79.4,68.3,74.9,69.3,64.8,97,74,43,30.03,29.86,10,1,10,0.00
2014-7-15,89.0,76.7,66.5,72.1,67.0,61.2,96,74,52,29.90,29.76,7,0,7,0.00
2014-7-16,81.3,71.2,60.1,62.1,58.4,53.8,94,67,41,29.97,29.83,5,0,5,0.00
2014-7-17,82.8,70.2,56.4,60.7,56.0,53.1,92,64,38,30.11,29.97,7,0,7,0.00
2014-7-18,68.4,65.0,62.1,67.2,62.9,58.8,97,93,83,30.22,30.11,2,0,2,0.48
2014-7-19,68.0,65.3,62.6,67.1,64.3,61.7,98,96,94,30.20,30.13,2,0,2,0.26
2014-7-20,78.2,69.6,62.6,70.6,65.8,61.7,98,89,69,30.16,30.06,3,0,5,0.01
2014-7-21,76.1,72.2,67.6,72.4,69.7,66.4,97,92,82,30.16,30.07,2,0,2,0.00
2014-7-22,82.7,74.4,69.3,73.8,70.6,68.3,98,89,68,30.18,30.09,6,0,6,0.02
2014-7-23,90.5,74.7,66.6,75.9,70.0,65.7,98,87,50,30.13,29.94,7,0,12,0.11
2014-7-24,85.7,73.6,69.3,74.8,70.6,68.3,98,91,65,29.97,29.85,5,0,5,0.39
2014-7-25,83.8,74.6,66.0,70.8,68.2,65.1,98,82,56,30.07,29.97,6,0,6,0.00
2014-7-26,88.0,76.8,64.4,73.8,67.4,63.2,97,76,48,30.04,29.94,6,0,6,0.00
2014-7-27,89.5,77.3,68.7,73.5,69.9,66.4,96,80,48,29.98,29.77,8,0,8,0.09
2014-7-28,85.2,74.3,64.2,71.7,63.0,57.2,97,71,41,29.93,29.80,11,1,11,0.21
2014-7-29,79.7,69.1,57.4,61.5,57.2,54.6,93,68,43,30.04,29.90,6,0,6,0.00
2014-7-30,80.3,67.7,54.5,62.1,56.5,52.8,95,71,41,30.11,30.03,6,0,6,0.00
2014-7-31,71.5,65.3,59.0,68.0,62.5,57.3,95,91,84,30.17,30.09,2,0,3,0.13
2014-8-1,65.8,64.0,62.6,64.9,63.0,61.7,97,97,95,30.17,30.11,4,0,4,1.02
2014-8-2,73.7,67.6,63.6,68.0,65.1,62.7,98,92,78,30.17,30.08,5,0,5,0.00
2014-8-3,85.1,72.8,61.7,71.0,65.5,60.8,98,80,48,30.14,30.03,5,0,5,0.00
2014-8-4,85.0,73.6,63.1,69.7,65.5,61.8,96,78,52,30.12,30.03,5,0,5,0.00
2014-8-5,85.2,74.8,65.0,71.5,67.7,63.5,96,80,54,30.09,29.99,5,0,6,0.16
2014-8-6,86.5,73.4,62.2,71.3,66.4,61.3,97,81,50,30.04,29.94,10,0,10,0.00
2014-8-7,85.7,74.2,63.4,70.6,66.6,62.2,97,79,49,30.05,29.95,5,0,5,0.00
2014-8-8,75.0,69.4,64.3,72.7,67.9,62.8,97,95,90,30.14,30.04,4,0,4,0.23
2014-8-9,77.7,70.5,64.8,73.6,68.9,63.0,98,95,85,30.12,30.02,6,0,6,0.22
2014-8-10,69.6,66.3,64.0,69.0,65.5,62.4,98,97,94,30.13,30.05,2,0,2,1.45
2014-8-11,80.7,71.7,67.5,75.6,70.0,66.9,99,94,78,30.10,29.94,3,0,3,1.39
2014-8-12,83.6,75.3,70.0,76.5,72.5,69.2,98,91,73,29.96,29.77,7,0,7,0.24
2014-8-13,80.1,71.0,60.1,69.7,63.3,58.0,98,79,52,30.03,29.85,8,0,8,0.00
2014-8-14,81.2,68.0,54.6,65.6,59.6,53.5,97,77,46,30.09,29.98,8,0,8,0.00
2014-8-15,84.1,70.6,58.6,69.9,63.2,57.8,97,80,47,30.07,29.97,4,0,4,0.00
2014-8-16,85.8,73.6,62.9,70.0,64.8,59.6,95,77,42,30.07,29.99,8,0,8,0.00
2014-8-17,87.0,75.0,64.4,72.3,67.3,62.0,93,79,51,30.04,29.95,6,0,6,0.00
2014-8-18,87.6,76.3,69.1,76.1,69.6,64.1,89,80,60,29.97,29.78,6,0,6,0.15
2014-8-19,87.3,76.2,65.2,72.7,66.6,59.6,84,73,51,29.93,29.81,4,0,6,0.72
2014-8-20,88.1,76.3,66.3,74.9,66.6,58.5,81,72,55,30.07,29.91,7,0,7,0.01
2014-8-21,90.0,77.0,64.7,75.2,65.9,55.8,79,69,53,30.12,30.00,5,0,5,0.00
2014-8-22,91.6,79.6,68.7,75.0,66.0,55.7,73,64,48,30.08,29.95,7,0,8,0.04
2014-8-23,89.6,76.2,69.2,76.2,58.0,41.0,70,54,32,30.00,29.90,7,0,7,0.50
2014-8-24,74.5,71.4,67.9,59.6,40.7,24.5,60,35,18,30.14,29.97,3,0,3,0.00
2014-8-25,80.1,70.7,60.5,64.8,44.4,14.1,67,42,15,30.17,30.09,4,0,4,0.00
2014-8-26,81.3,67.9,56.0,64.9,32.6,-18.9,67,34,3,30.21,30.10,3,0,5,0.00
2014-8-27,85.0,69.5,55.1,66.2,22.1,-43.4,65,26,1,30.16,30.01,4,0,4,0.00
2014-8-28,91.5,75.0,61.0,72.2,30.1,-38.9,63,24,1,30.07,29.97,6,0,6,0.00
2014-8-29,85.1,75.2,67.3,70.2,27.4,-32.7,61,23,1,30.18,30.05,6,0,6,0.00
2014-8-30,88.3,75.7,67.5,71.4,20.9,-31.3,60,16,1,30.23,30.10,3,0,7,0.00
2014-8-31,90.0,76.3,69.0,73.2,22.2,-31.5,58,17,1,30.19,30.05,4,0,5,0.46
2014-9-1,91.9,76.9,68.5,72.1,25.7,-32.7,58,20,1,30.14,30.04,9,0,9,0.00
2014-9-2,92.8,76.2,65.6,73.0,21.4,-29.5,57,16,1,30.10,29.95,6,0,6,0.00
2014-9-3,89.0,75.4,64.8,70.5,23.0,-30.1,56,18,1,30.14,30.00,6,0,7,0.27
2014-9-4,83.3,73.0,69.3,44.4,2.1,-29.3,26,1,1,30.21,30.12,6,0,19,0.85
2014-9-5,86.5,74.7,67.9,66.7,10.3,-28.6,52,7,1,30.24,30.10,4,0,4,0.00
2014-9-6,88.1,75.1,66.5,69.4,16.0,-31.2,54,11,1,30.12,29.95,6,0,7,0.08
2014-9-7,83.8,74.4,67.5,63.7,19.3,-31.8,51,14,1,30.12,29.99,5,0,5,0.03
2014-9-8,72.0,67.9,64.3,12.3,0.0,-34.3,10,1,1,30.17,30.09,8,0,8,0.08
2014-9-9,76.4,70.0,63.7,32.2,2.3,-33.4,20,2,1,30.18,30.09,4,0,4,0.00
2014-9-10,76.1,70.7,67.4,12.9,-0.2,-32.2,9,0,1,30.16,30.05,4,0,5,0.00
2014-9-11,86.9,74.5,64.9,64.4,13.6,-29.8,48,9,1,30.08,29.96,7,0,8,0.05
2014-9-12,85.4,75.3,67.3,61.5,13.9,-29.5,45,9,1,30.09,29.99,6,0,6,0.72
2014-9-13,82.5,72.4,65.8,50.5,2.1,-32.0,33,2,1,30.21,30.05,4,0,4,1.50
2014-9-14,67.7,63.9,60.5,23.8,0.6,-38.1,19,1,1,30.32,30.20,2,0,2,0.10
2014-9-15,70.8,66.9,63.9,0.0,0.0,0.0,0,0,100,30.26,30.15,3,0,4,0.04
2014-9-16,83.2,71.5,64.4,58.9,10.8,-33.1,45,7,1,30.15,29.94,6,0,6,0.03
2014-9-17,72.1,66.2,60.7,16.6,-1.2,-35.5,12,1,1,30.03,29.94,4,0,5,0.01
2014-9-18,78.9,67.4,59.0,58.1,8.5,-33.7,51,8,1,30.07,29.97,4,0,4,0.00
2014-9-19,75.3,67.4,62.6,52.2,6.1,-34.9,45,5,1,30.26,30.07,6,0,7,0.00
2014-9-20,79.6,67.7,58.3,59.4,16.9,-34.5,51,14,1,30.26,30.06,3,0,4,0.00
2014-9-21,85.2,68.9,55.7,63.3,18.2,-33.7,49,13,1,30.08,29.84,8,0,8,0.00
2014-9-22,76.8,65.9,54.0,55.4,21.6,-41.3,51,20,1,30.19,29.93,5,0,5,0.00
2014-9-23,59.8,56.5,52.1,22.8,-0.3,-42.4,24,2,1,30.37,30.19,2,0,2,0.01
2014-9-24,67.8,57.8,49.6,47.4,9.1,-42.7,48,9,1,30.43,30.31,6,0,6,0.08
2014-9-25,72.8,65.8,60.8,0.0,0.0,0.0,0,0,100,30.32,30.20,6,0,6,0.00
2014-9-26,70.5,65.7,62.4,0.0,0.0,0.0,0,0,100,30.27,30.20,5,0,5,0.02
2014-9-27,75.4,64.4,55.1,51.9,14.2,-35.0,45,12,1,30.28,30.18,4,0,4,0.00
2014-9-28,73.2,62.4,52.2,36.2,3.4,-35.2,27,3,1,30.25,30.13,5,0,5,0.00
2014-9-29,69.4,64.7,60.8,0.0,0.0,0.0,0,0,100,30.14,29.99,3,0,3,0.17
2014-9-30,83.2,68.3,60.3,61.5,13.3,-31.8,48,11,1,30.00,29.86,4,0,4,0.00
2014-10-1,82.7,67.0,53.3,60.3,18.0,-33.2,48,14,1,30.08,29.94,7,0,7,0.00
2014-10-2,83.8,68.4,56.8,61.2,15.9,-34.0,47,12,1,30.15,30.03,5,0,6,0.00
2014-10-3,72.9,64.3,55.9,0.0,0.0,0.0,0,0,100,30.07,29.79,5,0,6,0.41
2014-10-4,63.9,55.6,41.9,38.6,16.0,-51.2,53,22,1,29.97,29.76,10,1,11,0.00
2014-10-5,63.9,48.0,33.7,40.4,14.7,-47.4,53,17,1,30.08,29.95,8,1,8,0.00
2014-10-6,71.8,54.7,38.4,51.5,17.0,-39.4,49,17,1,30.11,30.00,13,1,13,0.08
2014-10-7,71.9,60.7,53.6,40.2,3.1,-36.0,33,3,1,30.16,29.99,12,0,12,0.07
2014-10-8,82.9,66.4,54.7,58.8,19.1,-40.5,48,15,1,30.10,29.99,9,0,9,0.01
2014-10-9,78.4,61.8,49.6,56.4,17.7,-38.2,48,15,2,30.22,30.08,9,0,9,0.00
2014-10-10,81.6,65.1,53.9,48.4,4.2,-30.3,32,3,1,30.14,29.96,11,1,11,0.26
2014-10-11,79.6,68.0,62.6,0.0,0.0,0.0,0,0,100,30.09,29.96,7,0,7,0.11
2014-10-12,65.9,57.1,54.4,0.0,0.0,0.0,0,0,100,30.29,30.08,5,0,5,0.26
2014-10-13,65.0,60.1,56.1,0.0,0.0,0.0,0,0,100,30.30,30.14,3,0,3,0.13
2014-10-14,74.8,69.3,62.5,0.0,0.0,0.0,0,0,100,30.15,29.79,13,1,15,1.24
2014-10-15,70.0,60.9,54.7,45.8,7.8,-27.9,43,7,2,29.88,29.78,8,1,13,0.06
2014-10-16,67.5,57.2,47.6,45.8,8.7,-41.8,46,9,1,29.94,29.80,6,0,6,0.03
2014-10-17,73.7,56.2,41.3,51.0,14.4,-39.0,45,13,1,29.99,29.84,8,1,8,0.00
2014-10-18,70.7,59.1,49.3,48.2,22.9,-18.6,47,24,3,30.03,29.82,12,1,12,0.00
2014-10-19,69.3,55.0,44.4,44.5,16.2,-48.2,49,20,1,30.17,30.02,8,0,8,0.00
2014-10-20,69.4,53.3,38.5,47.2,11.5,-40.6,45,11,1,30.18,30.00,9,0,9,0.00
2014-10-21,72.3,56.3,43.8,48.3,21.3,-26.0,48,23,2,30.04,29.91,12,1,13,0.00
2014-10-22,63.7,48.5,36.8,42.5,12.7,-50.1,48,19,1,30.16,30.03,11,1,11,0.00
2014-10-23,70.0,50.5,34.8,43.8,13.8,-46.1,47,16,1,30.16,30.03,8,0,8,0.00
2014-10-24,69.9,50.9,38.5,44.5,12.3,-42.2,47,13,1,30.13,30.01,6,0,6,0.00
2014-10-25,75.3,53.5,36.5,47.0,13.6,-42.3,46,12,1,30.11,29.97,9,0,9,0.00
2014-10-26,81.2,62.7,46.9,50.8,16.6,-44.0,45,13,1,30.02,29.90,5,0,11,0.00
2014-10-27,79.4,57.5,41.8,50.4,16.0,-39.9,45,13,1,30.17,30.02,5,0,7,0.00
2014-10-28,82.3,59.9,43.1,56.0,16.8,-38.1,43,13,1,30.18,30.05,12,1,12,0.00
2014-10-29,72.9,58.4,47.4,43.7,8.6,-43.7,35,8,1,30.07,29.95,8,0,8,0.00
2014-10-30,66.0,49.3,35.1,41.1,13.4,-48.6,47,15,1,30.13,30.00,6,0,6,0.00
2014-10-31,58.4,45.9,35.0,33.7,5.5,-34.8,40,7,2,30.04,29.84,4,0,6,0.04
2014-11-1,51.5,43.1,37.9,32.7,7.5,-25.8,49,15,4,30.14,29.78,15,1,15,0.23
2014-11-2,55.0,41.7,28.0,25.7,17.3,-59.9,51,37,1,30.42,30.12,16,1,16,0.00
2014-11-3,66.8,42.9,25.3,32.8,11.6,-52.7,50,14,1,30.52,30.39,7,0,7,0.00
2014-11-4,65.9,48.0,34.3,42.1,12.7,-47.6,47,14,1,30.41,30.26,4,0,4,0.00
2014-11-5,65.9,51.7,41.6,43.1,12.4,-43.4,47,13,1,30.34,30.18,4,0,6,0.00
2014-11-6,72.5,57.4,48.5,49.8,15.6,0.0,48,17,8,30.18,29.77,13,1,13,0.00
2014-11-7,59.5,47.5,30.5,35.0,22.7,-55.7,49,37,1,30.11,29.91,13,1,13,0.00
2014-11-8,57.9,40.4,27.5,37.0,9.6,-50.2,48,15,1,30.17,30.00,9,0,9,0.00
2014-11-9,67.5,45.4,31.8,45.8,20.2,-33.8,93,32,2,30.09,29.96,9,0,10,0.06
2014-11-10,67.4,45.8,30.0,46.0,37.0,28.7,97,76,36,30.17,30.09,9,0,9,0.00
2014-11-11,72.8,48.1,30.3,49.5,39.6,29.0,97,77,39,30.14,29.96,4,0,5,0.00
2014-11-12,75.4,55.7,38.9,54.7,46.6,37.3,96,75,43,30.06,29.99,7,0,7,0.00
2014-11-13,60.4,50.4,38.3,47.8,42.8,35.4,92,76,50,30.10,29.97,6,0,6,0.06
2014-11-14,42.9,33.8,23.0,35.6,22.0,13.9,93,65,34,30.41,30.09,7,1,11,0.02
2014-11-15,44.7,29.5,18.4,22.6,15.6,12.4,83,59,29,30.54,30.41,6,0,7,0.00
2014-11-16,52.3,41.7,28.1,40.4,27.7,22.0,91,60,35,30.44,30.08,6,0,6,0.02
2014-11-17,48.8,42.2,33.2,46.7,38.3,19.6,95,87,55,30.08,29.68,12,0,12,0.82
2014-11-18,36.1,27.7,15.5,20.1,10.5,6.3,83,49,32,30.39,29.99,11,1,11,0.00
2014-11-19,41.7,25.9,12.1,19.7,13.2,9.4,91,64,29,30.47,30.30,14,1,14,0.00
2014-11-20,58.0,36.9,19.2,32.0,22.4,17.0,92,62,23,30.30,30.11,17,1,17,0.00
2014-11-21,57.3,37.2,24.2,27.5,18.5,7.3,85,54,14,30.59,30.23,7,0,7,0.00
2014-11-22,55.5,34.4,18.6,29.8,20.8,16.2,91,63,25,30.64,30.39,7,0,7,0.00
2014-11-23,48.7,43.7,38.0,47.6,39.5,29.6,96,85,69,30.39,29.77,8,0,8,2.02
2014-11-24,72.4,56.1,39.4,60.8,49.7,38.6,98,81,51,29.93,29.74,15,1,15,0.00
2014-11-25,59.6,49.0,43.1,48.3,40.3,29.1,97,76,32,30.14,29.92,5,0,5,0.01
2014-11-26,53.7,44.1,38.5,44.2,40.5,35.7,96,88,58,30.11,29.97,6,0,6,1.14
2014-11-27,48.2,39.3,31.4,40.5,31.2,22.4,97,75,43,30.38,30.00,12,1,12,0.01
2014-11-28,46.4,32.8,22.3,23.5,21.2,17.4,90,65,33,30.45,30.33,7,0,7,0.00
2014-11-29,55.5,36.4,25.2,33.8,27.6,23.0,93,74,38,30.37,30.26,8,0,8,0.00
2014-11-30,66.0,42.2,25.8,48.7,35.5,24.3,96,80,47,30.37,30.26,8,1,10,0.00
2014-12-1,73.8,50.4,34.1,52.3,43.2,32.9,97,80,44,30.42,30.29,9,1,9,0.00
2014-12-2,51.4,44.1,40.9,50.3,41.8,38.8,97,92,86,30.47,30.32,11,0,11,0.00
2014-12-3,60.2,47.8,40.9,51.7,44.8,39.6,96,90,63,30.40,30.23,11,0,11,0.01
2014-12-4,56.4,46.9,37.6,45.3,39.7,36.5,97,78,49,30.45,30.30,5,0,5,0.00
2014-12-5,48.7,46.2,41.8,43.8,41.0,37.0,92,82,75,30.52,30.39,5,0,5,0.01
2014-12-6,50.7,47.0,43.8,49.3,45.3,40.6,96,94,75,30.39,30.08,11,0,11,0.23
2014-12-7,55.0,43.8,29.0,41.0,30.0,20.4,90,62,27,30.51,30.22,13,1,14,0.00
2014-12-8,41.2,37.7,32.0,36.4,27.1,17.4,92,66,42,30.53,30.24,9,1,9,0.00
2014-12-9,53.3,39.4,29.7,41.1,33.3,27.1,97,81,47,30.24,30.02,11,1,11,0.00
2014-12-10,49.1,39.9,24.8,31.4,27.9,21.9,89,63,44,30.14,30.07,13,1,13,0.00
2014-12-11,52.1,33.0,22.0,25.6,19.7,11.7,92,64,21,30.25,30.06,10,0,10,0.00
2014-12-12,60.6,38.1,20.4,24.6,18.0,14.1,89,53,18,30.33,30.23,5,1,8,0.00
2014-12-13,67.2,41.0,24.2,30.4,20.3,8.5,86,54,10,30.24,30.12,6,0,8,0.00
2014-12-14,66.2,40.7,24.8,34.3,26.6,21.8,89,64,21,30.12,30.05,7,0,7,0.00
2014-12-15,58.1,37.9,24.2,37.7,29.8,22.5,95,76,41,30.20,30.10,5,0,9,0.00
2014-12-16,54.7,45.3,35.8,49.0,40.8,32.7,95,85,62,30.13,29.91,10,0,10,0.08
2014-12-17,59.8,41.4,28.8,43.1,32.7,27.5,97,75,36,30.20,30.08,6,0,6,0.00
2014-12-18,52.5,39.4,27.9,34.6,29.6,25.5,91,71,37,30.24,30.11,8,0,8,0.00
2014-12-19,55.7,40.4,27.2,34.7,31.0,25.5,94,73,41,30.25,30.14,6,0,6,0.00
2014-12-20,43.3,39.9,36.3,36.0,34.3,32.1,92,81,70,30.32,30.24,4,0,5,0.01
2014-12-21,45.1,41.8,38.7,39.0,37.1,34.6,87,83,78,30.35,30.25,4,0,4,0.00
2014-12-22,42.9,39.5,37.5,38.8,37.3,35.9,95,92,82,30.25,30.08,6,0,6,0.07
2014-12-23,43.6,40.9,37.6,42.8,39.8,36.3,97,96,94,30.13,29.97,4,0,4,0.37
2014-12-24,51.4,47.8,43.6,50.9,47.0,42.8,98,97,97,29.97,29.69,5,0,5,1.26
2014-12-25,55.1,44.7,28.6,49.3,34.8,27.1,97,70,39,30.33,29.74,10,1,10,0.00
2014-12-26,60.8,38.1,25.4,39.9,31.4,24.1,97,80,42,30.43,30.29,6,0,6,0.00
2014-12-27,62.7,44.8,32.3,44.3,37.1,31.0,97,78,40,30.38,30.21,7,0,7,0.00
2014-12-28,61.2,49.3,41.5,54.8,46.2,39.2,96,89,78,30.22,30.02,4,0,4,0.01
2014-12-29,54.6,50.8,41.1,52.6,49.6,40.0,97,96,92,30.20,30.06,6,0,6,0.64
2014-12-30,41.1,37.5,29.3,40.0,35.9,28.3,96,94,88,30.50,30.18,5,0,5,0.22
2014-12-31,46.1,34.3,25.2,35.7,27.7,21.2,97,79,44,30.54,30.42,5,0,6,0.00
2015-1-1,55.1,37.1,20.4,35.2,25.9,18.7,94,68,34,30.42,30.26,9,1,9,0.00
2015-1-2,53.8,46.1,36.7,42.3,38.2,33.8,92,75,57,30.41,30.26,5,0,5,0.00